Location: City of Moscow
(46.7306°N, 116.9989°W)
Time: 05:15:02
(UTC+00:00)

Orbus 7S? - Pass Details

Date: 24 March 2026
Orbit: 354 x 6170 km, 56.9° (Epoch: 30 September)

Event Time Altitude Azimuth Distance (km) Brightness Sun altitude
Rises 10:28:38 0° 171° (S) 10,330 9.5 -31.1°
Reaches altitude 10° 10:37:05 10° 164° (SSE) 9,587 9.3 -30.0°
Maximum altitude 11:08:25 38° 111° (ESE) 6,640 8.9 -25.7°
Drops below altitude 10° 11:28:38 10° 55° (NE) 6,485 9.8 -22.8°
Sets 11:32:43 0° 48° (NE) 6,887 10.2 -22.2°
